Regional Weather Roundup
Issued by NWS

Home | Current Version | Previous Version | Text Only | Print | Product List | Glossary Off
Versions: 1 2 3 4 5 6 7 8 9 10 11 12 13 14 15 16 17 18 19 20 21 22 23 24 25 26 27 28 29 30 31 32 33 34 35 36 37 38 39 40 41 42 43 44 45 46 47 48 49

000
ASUS43 KDMX 240307
RWRIA

WEATHER ROUNDUP FOR IOWA
NATIONAL WEATHER SERVICE DES MOINES IA
1000 PM CDT THU APR 23 2015

NOTE: "FAIR" INDICATES FEW OR NO CLOUDS BELOW 12,000 FEET WITH NO
SIGNIFICANT WEATHER AND/OR OBSTRUCTIONS TO VISIBILITY.

* - THESE STATIONS ARE NOT NWS STATIONS...THUS NOT UNDER NWS
QUALITY CONTROL.  THEY ALSO DO NOT REPORT WEATHER SUCH
AS PRECIPITATION OR FOG.

IAZ001>003-012>014-020>022-031>034-043>046-240400-
   NORTHWEST IOWA

CITY           SKY/WX    TMP DP  RH WIND       PRES   REMARKS
CARROLL *      MOCLDY    48  30  49 SE7       29.96R
CHEROKEE *     CLEAR     50  32  50 SE9       29.92S
DENISON *      PTCLDY    52  32  46 SE12      29.92R
LE MARS *      CLEAR     54  30  40 SE14      29.89F
ORANGE CITY *  CLEAR     50  30  46 SE5       29.90S
SHELDON *      PTCLDY    52  28  40 SE13      29.90S
SIOUX CITY     PTCLDY    55  31  39 SE12      29.88F
SPENCER        CLEAR     49  29  46 SE12      29.94R
STORM LAKE *   CLEAR     48  30  49 SE10      29.95R
$$

IAZ055>058-069>071-079>083-090>094-240400-
   SOUTHWEST IOWA

CITY           SKY/WX    TMP DP  RH WIND       PRES   REMARKS
ATLANTIC *     PTCLDY    55  32  41 SE8       29.95R
AUDUBON *      CLEAR     50  30  46 S3        29.97R
CLARINDA *     CLEAR     55  34  44 SE7       29.96S
COUNCIL BLFS * CLOUDY    57  34  41 SE16      29.91S
CRESTON *      PTCLDY    48  36  61 SE8       29.98S
HARLAN  *      CLEAR     54  34  47 SE8       29.97S
LAMONI         PTCLDY    53  33  46 E6        29.98S
RED OAK *      MOCLDY    55  34  44 SE10      29.93S
SHENANDOAH *   PTCLDY    55  36  47 SE9       29.94S
$$

IAZ047>049-059>061-072>074-084-240400-
   CENTRAL IOWA

CITY           SKY/WX    TMP DP  RH WIND       PRES   REMARKS
AMES           CLEAR     48  26  42 SE5       29.99R
ANKENY *       CLEAR     48  30  49 CALM      30.00R
CHARITON *     CLOUDY    52  34  50 SE3       30.00S
DES MOINES     PTCLDY    56  24  29 SE9       30.00R
GRINNELL*      CLEAR     46  27  46 E5        30.02R
KNOXVILLE *    CLEAR     52  25  35 E6        30.00R
MARSHALLTOWN   CLEAR     50  21  32 SE5       30.00R
PELLA *        CLEAR     50  30  46 E3        30.02R
PERRY *          N/A     48  32  53 SE8       29.98S
$$

IAZ004>006-015-016-023>025-035-036-240400-
   NORTH CENTRAL IOWA

CITY           SKY/WX    TMP DP  RH WIND       PRES   REMARKS
ALGONA *       CLEAR     50  23  34 SE6       29.98R
CLARION *      CLEAR     48  21  34 SE9       29.98S
ESTHERVILLE    PTCLDY    46  24  42 SE10      29.95R
FORT DODGE *   CLEAR     46  27  46 SE6       29.98R
MASON CITY     CLEAR     37  22  54 SE6       30.00S WCI  32
FOREST CITY *  CLEAR     36  28  75 E5        29.99R WCI  32
IOWA FALLS *     N/A     45  23  42 SE5       30.01R
$$

IAZ007>011-017>019-026>030-037>042-050>054-066-240400-
   NORTHEAST IOWA

CITY           SKY/WX    TMP DP  RH WIND       PRES   REMARKS
CEDAR RAPIDS   CLEAR     42  17  36 E3        30.02R
CHARLES CITY * CLEAR     46  10  23 E6        30.01S
CLINTON *      CLEAR     37  14  38 CALM      30.06S
DECORAH *      CLEAR     45  12  26 CALM      30.01S
DUBUQUE        CLEAR     39  19  44 CALM      30.03R
MONTICELLO *   CLEAR     39  19  45 CALM      30.03S
OELWEIN *      CLEAR     45  14  29 E5        30.02S
WATERLOO       CLEAR     40  21  46 E3        30.01R
$$

IAZ064-065-067-068-078-240400-
   EAST CENTRAL IOWA

CITY           SKY/WX    TMP DP  RH WIND       PRES   REMARKS
DAVENPORT      CLEAR     44  10  25 CALM      30.04S
IOWA CITY      CLEAR     41  25  53 CALM      30.04S
MT. PLEASANT * CLEAR     46  23  39 E3        30.03S
MUSCATINE *    PTCLDY    43  23  45 CALM      30.04R
QUAD CITIES    CLEAR     38  20  48 CALM      30.04R
$$

IAZ062-063-075>077-085>089-095>099-240400-
   SOUTHEAST IOWA

CITY           SKY/WX    TMP DP  RH WIND       PRES   REMARKS
BURLINGTON     CLEAR     47  24  40 CALM      30.03R
FAIRFIELD *    CLEAR     46  27  46 E6        30.03R
FORT MADISON * CLEAR     50  23  34 CALM      30.04S
KEOKUK *       CLEAR     48  27  43 CALM      30.03S
OSKALOOSA *      N/A     46  25  42 E6        30.02S
CENTERVILLE *  CLEAR     50  32  50 E6        30.03R
OTTUMWA        CLEAR     49  26  41 E7        30.01R
WASHINGTON *   CLEAR     46  19  34 E5        30.03S
$$

ABBREVIATIONS USED IN REMARKS
   TC - TEMPERATURES IN CELSIUS
  WCI - WIND CHILL INDEX
   HX - HEAT INDEX
  VSB - VISIBILITY
$$



USA.gov is the U.S. government's official web portal to all federal, state and local government web resources and services.